Regional Weather Roundup
Issued by NWS

Home | Current Version | Previous Version | Graphics & Text | Print | Product List | Glossary On
Versions: 1 2 3 4 5 6 7 8 9 10 11 12 13 14 15 16 17 18 19 20 21 22 23 24 25 26 27 28 29 30 31 32 33 34 35 36 37 38 39 40 41 42 43 44 45 46 47 48 49 50
604
ASUS43 KBIS 241110
RWRND

NORTH DAKOTA REGIONAL WEATHER ROUNDUP
NATIONAL WEATHER SERVICE BISMARCK ND
500 AM CST TUE JAN 24 2017

NOTE: "FAIR" INDICATES FEW OR NO CLOUDS BELOW 12,000 FEET WITH NO
SIGNIFICANT WEATHER AND/OR OBSTRUCTIONS TO VISIBILITY.


NDZ001>003-009>011-017-241200-
NORTHWEST NORTH DAKOTA

CITY           SKY/WX    TMP DP  RH WIND       PRES   REMARKS
WILLISTON      CLOUDY    21  16  81 NW10      29.87S WCI  10
MINOT          CLOUDY    24  19  81 W12       29.84R WCI  13
$$

NDZ018>021-031>035-040>046-241200-
SOUTHWEST NORTH DAKOTA

CITY           SKY/WX    TMP DP  RH WIND       PRES   REMARKS
BISMARCK       CLOUDY    25  19  78 NW6       29.87S WCI  18
DICKINSON      CLOUDY    20  17  88 NW8       29.80S WCI  10
GARRISON         N/A     21  17  84 W8        29.85S WCI  11
HETTINGER ARPT CLOUDY    22  20  92 N12       29.82R FOG     WCI  10
$$

NDZ004>008-012>016-024-026-027-054-241200-
NORTHEAST NORTH DAKOTA

CITY           SKY/WX    TMP DP  RH WIND       PRES   REMARKS
GRAND FORKS    CLOUDY    26  19  74 W8        29.87R WCI  18
GRND FRKS AFB  CLOUDY    25  19  79 NW8       29.87R WCI  16
DEVILS LAKE    CLOUDY    21  19  93 W14       29.84R WCI   8
$$

NDZ022-023-025-028>030-036>039-047>053-241200-
SOUTHEAST NORTH DAKOTA

CITY           SKY/WX    TMP DP  RH WIND       PRES   REMARKS
FARGO          FLURRIES  32  26  78 W6        29.87S
JAMESTOWN      CLOUDY    25  21  85 NW12      29.85R WCI  14
$$





USA.gov is the U.S. government's official web portal to all federal, state and local government web resources and services.